Марнеули

Грузия     41°28′58″N   44°48′13″E
темп.,
°C
ветер,
м/с
пор.,
м/с
влажн.,
%
обл.,
%
осадки,
мм/ч
давл.,
гПа
погр.,
м
21 апреля, ср
ср2101:00+16з1184100 0.4 101513
04:00+15зсз3391100 2.4 101551
07:00+15сз1182100 0.1 101421
10:00+20сз1262100 0.1 1014490
13:00+24всв22485 0.0 1011924
16:00+23с3458100 0.4 1008338
19:00+17сз267983 4.1 1013259
22:00+14сз2391100 7.1 101649
22 апреля, чт
чт2201:00+13ссз2289100 1.2 101734
04:00+14с1288100 2.1 1017113
07:00+14св2491100 0.4 1018345
10:00+14всв2387100 0.5 1019421
13:00+16всв237964 0.1 1019645
16:00+18с126985 0.3 1016767
19:00+18в117255 0.1 101530
22:00+14с3484100 0.5 1017159
23 апреля, пт
пт2301:00+12с2479100 0.1 1018282
04:00+11ссз137499 0.1 1019258
07:00+10с127498 0.1 1021194
10:00+12св126994 0.1 1022495
13:00+18вюв32521 0.0 1019937
16:00+20всв22440 0.0 10171229
19:00+17всв11520 0.0 101828
22:00+13зсз23605 0.0 102020
24 апреля, сб
сб2401:00+12сз126390 0.0 102012
04:00+9вюв2487100 0.0 1023448
07:00+10ююз1190100 0.4 1023196
10:00+10зюз0185100 0.5 1022320
13:00+15юз01666 0.0 1020711
16:00+19юв115396 0.0 1016888
19:00+18ююз226480 0.0 101634
22:00+14ссз22723 0.0 101821
25 апреля, вс
вс2501:00+11ссз22805 0.0 101920
04:00+10ссз11825 0.0 101911
07:00+11сз11798 0.0 101913
10:00+16в226594 0.0 1018681
13:00+20вюв3352100 0.0 10151060
16:00+22вюв345010 0.0 10121073
19:00+20ю116166 0.0 101111
22:00+16сз33716 0.0 101225